TimeCDT,TemperatureF,Dew PointF,Humidity,Sea Level PressureIn,VisibilityMPH,Wind Direction,Wind SpeedMPH,Gust SpeedMPH,PrecipitationIn,Events,Conditions,WindDirDegrees,DateUTC
12:15 AM,53.6,50.0,88,30.25,7.0,Calm,Calm,-,N/A,,Clear,0,2011-10-10 05:15:00
12:35 AM,51.8,50.0,94,30.25,7.0,Calm,Calm,-,N/A,,Clear,0,2011-10-10 05:35:00
12:55 AM,51.8,50.0,94,30.24,5.0,Calm,Calm,-,N/A,,Clear,0,2011-10-10 05:55:00
1:15 AM,51.8,50.0,94,30.24,4.0,Calm,Calm,-,N/A,,Clear,0,2011-10-10 06:15:00
1:35 AM,51.8,48.2,88,30.24,4.0,Calm,Calm,-,N/A,,Clear,0,2011-10-10 06:35:00
1:55 AM,51.8,48.2,88,30.24,4.0,Calm,Calm,-,N/A,,Clear,0,2011-10-10 06:55:00
2:15 AM,50.0,46.4,87,30.23,3.0,Calm,Calm,-,N/A,,Clear,0,2011-10-10 07:15:00
2:35 AM,50.0,46.4,87,30.23,4.0,Calm,Calm,-,N/A,,Clear,0,2011-10-10 07:35:00
2:55 AM,46.4,44.6,93,30.22,4.0,Calm,Calm,-,N/A,,Clear,0,2011-10-10 07:55:00
3:35 AM,46.4,44.6,93,30.22,3.0,Calm,Calm,-,N/A,,Clear,0,2011-10-10 08:35:00
4:15 AM,46.4,44.6,93,30.22,5.0,Calm,Calm,-,N/A,,Clear,0,2011-10-10 09:15:00
4:35 AM,46.4,44.6,93,30.22,5.0,Calm,Calm,-,N/A,,Clear,0,2011-10-10 09:35:00
4:55 AM,46.4,44.6,93,30.22,5.0,Calm,Calm,-,N/A,,Clear,0,2011-10-10 09:55:00
5:15 AM,46.4,44.6,93,30.22,4.0,Calm,Calm,-,N/A,,Clear,0,2011-10-10 10:15:00
5:35 AM,44.6,44.6,100,30.22,5.0,Calm,Calm,-,N/A,,Clear,0,2011-10-10 10:35:00
5:55 AM,46.4,44.6,93,30.22,4.0,Calm,Calm,-,N/A,,Clear,0,2011-10-10 10:55:00
6:15 AM,46.4,44.6,93,30.22,5.0,Calm,Calm,-,N/A,,Clear,0,2011-10-10 11:15:00
6:35 AM,44.6,44.6,100,30.22,5.0,Calm,Calm,-,N/A,,Clear,0,2011-10-10 11:35:00
6:55 AM,46.4,44.6,93,30.22,3.0,Calm,Calm,-,N/A,,Clear,0,2011-10-10 11:55:00
7:35 AM,44.6,44.6,100,30.21,2.5,Calm,Calm,-,N/A,,Clear,0,2011-10-10 12:35:00
8:15 AM,46.4,46.4,100,30.21,4.0,Calm,Calm,-,N/A,,Clear,0,2011-10-10 13:15:00
8:35 AM,48.2,46.4,93,30.21,4.0,Calm,Calm,-,N/A,,Clear,0,2011-10-10 13:35:00
8:55 AM,51.8,50.0,94,30.21,4.0,Calm,Calm,-,N/A,,Clear,0,2011-10-10 13:55:00
9:15 AM,53.6,51.8,94,30.21,5.0,Calm,Calm,-,N/A,,Clear,0,2011-10-10 14:15:00
9:55 AM,60.8,53.6,77,30.19,10.0,Calm,Calm,-,N/A,,Clear,0,2011-10-10 14:55:00
10:15 AM,64.4,53.6,68,30.19,10.0,Calm,Calm,-,N/A,,Clear,0,2011-10-10 15:15:00
10:35 AM,66.2,53.6,64,30.18,10.0,Calm,Calm,-,N/A,,Clear,0,2011-10-10 15:35:00
10:55 AM,68.0,53.6,60,30.17,10.0,Calm,Calm,-,N/A,,Clear,0,2011-10-10 15:55:00
11:15 AM,69.8,53.6,56,30.16,10.0,East,4.6,-,N/A,,Clear,100,2011-10-10 16:15:00
11:35 AM,71.6,51.8,50,30.16,10.0,SE,4.6,-,N/A,,Clear,140,2011-10-10 16:35:00
11:55 AM,73.4,53.6,50,30.15,10.0,ESE,6.9,-,N/A,,Clear,110,2011-10-10 16:55:00
12:15 PM,75.2,51.8,44,30.15,10.0,ESE,8.1,-,N/A,,Clear,120,2011-10-10 17:15:00
12:35 PM,77.0,51.8,41,30.13,10.0,SE,9.2,-,N/A,,Clear,130,2011-10-10 17:35:00
12:55 PM,78.8,46.4,32,30.12,10.0,SE,13.8,17.3,N/A,,Clear,130,2011-10-10 17:55:00
1:15 PM,78.8,46.4,32,30.11,10.0,SE,11.5,-,N/A,,Clear,130,2011-10-10 18:15:00
1:35 PM,77.0,48.2,36,30.10,10.0,SSE,10.4,-,N/A,,Clear,150,2011-10-10 18:35:00
1:55 PM,77.0,48.2,36,30.09,10.0,SE,11.5,-,N/A,,Clear,130,2011-10-10 18:55:00
2:15 PM,78.8,50.0,36,30.08,10.0,SE,8.1,-,N/A,,Clear,140,2011-10-10 19:15:00
2:35 PM,77.0,48.2,36,30.07,10.0,SSE,10.4,17.3,N/A,,Clear,150,2011-10-10 19:35:00
3:15 PM,77.0,42.8,29,30.06,10.0,SE,10.4,-,N/A,,Clear,140,2011-10-10 20:15:00
3:35 PM,75.2,44.6,34,30.05,10.0,SSE,9.2,-,N/A,,Clear,150,2011-10-10 20:35:00
3:55 PM,77.0,44.6,32,30.04,10.0,SSE,15.0,18.4,N/A,,Clear,150,2011-10-10 20:55:00
4:15 PM,77.0,42.8,29,30.04,10.0,SSE,12.7,17.3,N/A,,Clear,150,2011-10-10 21:15:00
4:35 PM,75.2,44.6,34,30.04,10.0,SSE,13.8,18.4,N/A,,Clear,150,2011-10-10 21:35:00
4:55 PM,73.4,44.6,36,30.04,10.0,South,11.5,17.3,N/A,,Clear,170,2011-10-10 21:55:00
5:15 PM,71.6,44.6,38,30.03,10.0,SSE,8.1,-,N/A,,Clear,150,2011-10-10 22:15:00
5:55 PM,69.8,50.0,49,30.03,10.0,ESE,8.1,-,N/A,,Clear,120,2011-10-10 22:55:00
6:15 PM,68.0,50.0,52,30.03,10.0,SE,6.9,-,N/A,,Clear,130,2011-10-10 23:15:00
6:35 PM,66.2,50.0,56,30.03,10.0,ESE,6.9,-,N/A,,Clear,120,2011-10-10 23:35:00
6:55 PM,64.4,50.0,59,30.03,10.0,ESE,6.9,-,N/A,,Clear,120,2011-10-10 23:55:00
7:15 PM,64.4,50.0,59,30.03,10.0,ESE,5.8,-,N/A,,Clear,120,2011-10-11 00:15:00
7:35 PM,64.4,50.0,59,30.03,10.0,SE,6.9,-,N/A,,Clear,130,2011-10-11 00:35:00
7:55 PM,62.6,50.0,63,30.03,10.0,ESE,6.9,-,N/A,,Clear,120,2011-10-11 00:55:00
8:15 PM,62.6,50.0,63,30.03,10.0,ESE,6.9,-,N/A,,Clear,120,2011-10-11 01:15:00
8:35 PM,60.8,50.0,68,30.03,10.0,SE,4.6,-,N/A,,Clear,130,2011-10-11 01:35:00
8:55 PM,60.8,50.0,68,30.03,10.0,SE,4.6,-,N/A,,Clear,140,2011-10-11 01:55:00
9:15 PM,60.8,50.0,68,30.03,10.0,SE,5.8,-,N/A,,Clear,140,2011-10-11 02:15:00
9:35 PM,60.8,50.0,68,30.03,10.0,SSE,4.6,-,N/A,,Clear,150,2011-10-11 02:35:00
9:55 PM,60.8,50.0,68,30.03,10.0,SE,4.6,-,N/A,,Clear,140,2011-10-11 02:55:00
10:15 PM,60.8,50.0,68,30.03,10.0,SSE,3.5,-,N/A,,Clear,150,2011-10-11 03:15:00
10:35 PM,59.0,50.0,72,30.03,10.0,SSE,3.5,-,N/A,,Clear,150,2011-10-11 03:35:00
10:55 PM,59.0,50.0,72,30.03,10.0,Calm,Calm,-,N/A,,Clear,0,2011-10-11 03:55:00
11:15 PM,59.0,50.0,72,30.03,10.0,Calm,Calm,-,N/A,,Clear,0,2011-10-11 04:15:00
11:35 PM,59.0,50.0,72,30.03,10.0,Calm,Calm,-,N/A,,Clear,0,2011-10-11 04:35:00
11:55 PM,57.2,50.0,77,30.03,10.0,Calm,Calm,-,N/A,,Clear,0,2011-10-11 04:55:00